Tracking 19125 objects as of 19-Apr-2018
HD Live streaming from Space Station
objects crossing your sky now

SL-3 R/B

Track SL-3 R/B now!
10-day predictions
SL-3 R/B is classified as:


NORAD ID: 13403
Int'l Code: 1982-079B
Perigee: 529.6 km
Apogee: 576.6 km
Inclination: 81.2 °
Period: 95.6 minutes
Semi major axis: 6924 km
RCS: 6.1935 m2 (large)
Launch date: August 5, 1982
Source: Commonwealth of Independent States (former USSR) (CIS)
Launch site: PLESETSK MISSILE AND SPACE COMPLEX (PKMTR)

Note: This is a ROCKET BODY
aabbcc
Your satellite tracking list
Your tracking list is empty




NASA's NSSDC Master Catalog

Two Line Element Set (TLE):
1 13403U 82079B   18108.87585954 +.00000703 +00000-0 +45069-4 0  9994
2 13403 081.1663 279.1455 0033887 352.3229 007.7470 15.06805297942537
Source of the keplerian elements: AFSPC